Miscellaneous Local Product
Issued by NWS North Platte, NE

Home | Current Version | Previous Version | Graphics & Text | Print | Product List | Glossary On
Versions: 1 2 3 4 5 6 7 8 9 10 11 12 13 14 15 16 17 18 19 20 21 22 23 24 25 26 27 28 29 30 31 32 33 34 35 36 37 38 39 40 41 42 43 44 45 46 47 48 49 50
000
AXUS43 KLBF 231010
MISLBF


WESTERN AND NORTH CENTRAL NEBRASKA HOURLY WEATHER ROUNDUP
NATIONAL WEATHER SERVICE NORTH PLATTE NE
500 AM CDT FRI JUN 23 2017

NOTE: "FAIR" INDICATES FEW OR NO CLOUDS BELOW 12,000 FEET WITH NO
SIGNIFICANT WEATHER AND/OR OBSTRUCTIONS TO VISIBILITY.

NOTE: STATIONS NOT REPORTING VARIABLES SUCH AS SKY/WEATHER OR
PRESSURE ARE PROVIDED BY RAWS AND APRS NETWORKS AND ARE NOT UNDER
NATIONAL WEATHER SERVICE QUALITY CONTROL.

...OBSERVATIONS IN AND NEAR THE EASTERN PANHANDLE OF NEBRASKA...

CITY           SKY/WX    TMP DP  RH WIND       PRES   REMARKS
PINE RIDGE     LGT RAIN  53  49  86 N3        30.18R
GORDON         HVY RAIN  50  45  81 NW10      30.17R
CHADRON        LGT RAIN  52  47  83 SW8       30.18F
ALLIANCE       CLOUDY    55  38  52 N15       30.18R
SIDNEY         LGT RAIN  54  46  74 N12       30.19R
CRESCENT LAKE    N/A     58  36  44 N15G30      N/A
$$

...OBSERVATIONS IN NORTHERN NEBRASKA AND FAR SOUTHERN SOUTH DAKOTA...

CITY           SKY/WX    TMP DP  RH WIND       PRES   REMARKS
WINNER         FAIR      60  41  49 NW20G26   30.03R
VALENTINE      CLOUDY    61  35  37 NW14      30.09R
THEDFORD       CLOUDY    59  42  54 N7        30.10R
AINSWORTH      MOCLDY    60  38  45 N17G25    30.07R
O`NEILL        MOCLDY    61  44  54 NW13      30.01R
ORD            LGT RAIN  63  44  50 N17G25    29.94R
BROKEN BOW     CLOUDY    64  45  49 N20       29.99R
VALENTINE NWR    N/A     60  36  41 N14G23      N/A
HALSEY           N/A     61  40  45 N12G20      N/A
BUTTE            N/A     57  46  67 NW9         N/A
CHAMBERS         N/A     62  41  46 CALM        N/A
EWING            N/A     63  46  54 NW12G18     N/A
$$

...OBSERVATIONS IN SOUTHWEST NEBRASKA AND FAR NORTHEAST COLORADO...

CITY           SKY/WX    TMP DP  RH WIND       PRES   REMARKS
WRAY           RAIN      57  54  88 NE8       30.08S
IMPERIAL       LGT RAIN  59  52  77 N3        30.09R
OGALLALA       CLOUDY    62  45  52 N13G24    30.11R
NORTH PLATTE   CLOUDY    62  47  57 N9        30.04R
MCCOOK         LGT RAIN  61  54  77 W8        30.08R
LEXINGTON      LGT RAIN  62  54  75 NW5       30.00R
STAPLETON        N/A     60  51  73 CALM        N/A
GOTHENBURG       N/A     65  49  55 NW3         N/A
CALLAWAY         N/A     64  49  58 N9          N/A
$$

...OBSERVATIONS IN CENTRAL LINCOLN COUNTY AREA...

CITY           SKY/WX    TMP DP  RH WIND       PRES   REMARKS
N.P. AIRPORT   CLOUDY    62  47  57 N9        30.04R
N.P. DOWNTOWN    N/A     62  44  52 CALM        N/A
N.P. SOUTHEAST   N/A     62  45  53 N3          N/A
N.P. HILLCREST   N/A     62  43  49 N16         N/A
$$

...SOME OBSERVATIONS FROM AROUND THE REGION...

CITY           SKY/WX    TMP DP  RH WIND       PRES   REMARKS
DENVER         MOCLDY    61  53  75 NE13      30.16R
LIMON          CLOUDY    60  55  83 N5        30.13R
ASPEN          CLOUDY    45  36  70 CALM      30.23R
LARAMIE        CLOUDY    48  33  56 NE14G23   30.30R
CASPER         CLOUDY    46  34  62 NE8       30.32R
CHEYENNE       CLOUDY    51  38  60 NE14G24   30.27R
SCOTTSBLUFF    CLOUDY    57  40  52 N17G30    30.24R
GRAND ISLAND   CLOUDY    61  57  87 NW9       29.96R
OMAHA          MOCLDY    65  55  70 N10       29.81R
SIOUX FALLS    PTCLDY    56  47  71 NW10      29.88R
PIERRE         CLOUDY    56  47  71 W17       30.01R
RAPID CITY     PTCLDY    54  38  54 NW12      30.15R
BISMARCK       CLOUDY    57  47  69 NW14G25   29.97R
KANSAS CITY    CLOUDY    75  73  93 N15G23    29.73R
HILL CITY      CLOUDY    65  56  72 N13       29.91R
WICHITA        CLOUDY    76  65  68 NW13      29.76R
DODGE CITY     MOCLDY    66  63  90 N15       29.87R
OKLAHOMA CITY  MOCLDY    70  69  97 S7        29.71F
DALLAS         PTCLDY    78  74  87 S7        29.71S
AMARILLO       PTCLDY    74  59  59 E17       29.88S
$$




USA.gov is the U.S. government's official web portal to all federal, state and local government web resources and services.